Location: Fort Worth, Tx
(32.7431°N, 97.3695°W)
Time: 07:01:02
(UTC-05:00)

Explorer 11/Cluster Stage 4 - Pass Details

Date: 11 February 2026
Orbit: 463 x 1176 km, 28.8° (Epoch: 5 March)

Event Time Altitude Azimuth Distance (km) Brightness Sun altitude
Rises 21:11:48 0° 268° (W) 2,807 10.8 -25.8°
Reaches altitude 10° 21:14:04 10° 259° (W) 2,001 9.6 -26.2°
Maximum altitude 21:18:21 36° 193° (SSW) 1,125 7.4 -27.1°
Enters shadow 21:18:32 36° 188° (S) 1,133 7.4 -27.2°
